Location: Ellerstadt
(49.4644°N, 8.2615°E)
Time: 04:11:22
(UTC+00:00)

SAR-Lupe-1 - Pass Details

Date: 03 March 2021
Orbit: 482 x 483 km, 98.2° (Epoch: 30 March)

Event Time Altitude Azimuth Distance (km) Brightness Sun altitude
Rises 18:23:47 0° 15° (NNE) 2,561 7.6 -12.3°
Reaches altitude 10° 18:25:52 10° 17° (NNE) 1,675 6.7 -12.6°
Maximum altitude 18:29:28 79° 104° (ESE) 499 3.9 -13.2°
Drops below altitude 10° 18:33:02 10° 191° (SSW) 1,661 6.8 -13.8°
Sets 18:35:05 0° 193° (SSW) 2,536 7.8 -14.1°
